Location: Cahas Mountain Overlook
(37.0833°N, 80.1000°W)
Time: 19:15:49
(UTC-04:00)

Tiros 1 - Pass Details

Date: 08 February 2026
Orbit: 618 x 649 km, 48.4° (Epoch: 13 March)

Event Time Altitude Azimuth Distance (km) Brightness Sun altitude
Rises 19:52:45 0° 291° (WNW) 2,891 11.6 -24.3°
Reaches altitude 10° 19:55:34 10° 274° (W) 1,986 10.7 -24.8°
Maximum altitude 19:58:51 20° 228° (SW) 1,457 9.4 -25.5°
Enters shadow 20:01:59 11° 183° (S) 1,947 9.6 -26.1°
Drops below altitude 10° 20:02:08 10° 182° (S) 1,991 - -26.2°
Sets 20:04:58 0° 165° (SSE) 2,901 - -26.7°
